VK4HIT-13 Weather Reports


Display with metric or nautical units.
time (UTC)temp
F
wind
direction
speed
MPH
gust
MPH
rain 1hr
in
rain 24hr
in
rain mn
in
humidity
%
barometer
mb
20260508220423 52 47 0.0 3.0 0.00 0.00 0.00 67 1022.9
20260508215923 52 47 0.0 0.0 0.00 0.00 0.00 67 1023.0
20260508215423 52 47 0.0 1.0 0.00 0.00 0.00 67 1022.8
20260508214923 52 47 0.0 0.0 0.00 0.00 0.00 66 1022.8
20260508214423 52 47 0.0 1.0 0.00 0.00 0.00 66 1022.7
20260508213923 52 49 0.0 2.0 0.00 0.00 0.00 67 1022.6
20260508213423 51 49 0.0 1.0 0.00 0.00 0.00 64 1022.6
20260508212923 51 49 0.0 2.0 0.00 0.00 0.00 64 1022.6
20260508212423 51 50 0.0 1.0 0.00 0.00 0.00 63 1022.6
20260508211923 51 50 0.0 1.0 0.00 0.00 0.00 64 1022.4
20260508211423 51 50 0.0 1.0 0.00 0.00 0.00 65 1022.5
20260508210923 51 50 0.0 1.0 0.00 0.00 0.00 65 1022.3
20260508210423 51 50 0.0 1.0 0.00 0.00 0.00 64 1022.3
20260508205923 51 50 0.0 1.0 0.00 0.00 0.00 63 1022.3
20260508205423 51 51 0.0 1.0 0.00 0.00 0.00 63 1022.4
20260508204923 51 51 0.0 1.0 0.00 0.00 0.00 63 1022.3
20260508204423 51 51 0.0 1.0 0.00 0.00 0.00 63 1022.2
20260508203923 51 51 0.0 2.0 0.00 0.00 0.00 63 1022.2
20260508203423 51 51 1.0 3.0 0.00 0.00 0.00 63 1022.1
20260508202923 50 51 2.0 2.0 0.00 0.00 0.00 63 1022.0
20260508202423 50 51 2.0 3.0 0.00 0.00 0.00 63 1021.9
20260508201923 51 51 1.0 3.0 0.00 0.00 0.00 63 1021.9
20260508201423 51 50 0.0 3.0 0.00 0.00 0.00 62 1021.9
20260508200923 52 50 0.0 1.0 0.00 0.00 0.00 61 1021.6
20260508200423 52 50 0.0 2.0 0.00 0.00 0.00 61 1021.6
20260508195923 52 49 1.0 2.0 0.00 0.00 0.00 61 1021.4
20260508195423 52 49 0.0 3.0 0.00 0.00 0.00 61 1021.4
20260508194923 52 50 0.0 1.0 0.00 0.00 0.00 61 1021.4
20260508194423 52 50 0.0 1.0 0.00 0.00 0.00 60 1021.3
20260508193923 52 50 0.0 1.0 0.00 0.00 0.00 60 1021.3
20260508193423 52 50 0.0 1.0 0.00 0.00 0.00 60 1021.2
20260508192923 51 49 0.0 2.0 0.00 0.00 0.00 61 1021.1
20260508192423 51 49 1.0 1.0 0.00 0.00 0.00 62 1021.0
20260508191923 51 49 1.0 3.0 0.00 0.00 0.00 62 1020.9
20260508191423 52 48 0.0 1.0 0.00 0.00 0.00 61 1020.9
20260508190923 52 49 0.0 2.0 0.00 0.00 0.00 61 1021.0
20260508190423 53 49 0.0 1.0 0.00 0.00 0.00 61 1020.9
20260508185923 53 49 0.0 1.0 0.00 0.00 0.00 60 1020.8
20260508185423 53 49 1.0 3.0 0.00 0.00 0.00 60 1020.9
20260508184923 52 49 1.0 2.0 0.00 0.00 0.00 60 1020.9
20260508184423 52 49 1.0 3.0 0.00 0.00 0.00 61 1020.8
20260508183923 52 48 1.0 3.0 0.00 0.00 0.00 61 1020.8
20260508183423 52 49 1.0 2.0 0.00 0.00 0.00 61 1020.7
20260508182923 52 48 1.0 3.0 0.00 0.00 0.00 61 1020.7
20260508182423 53 46 0.0 2.0 0.00 0.00 0.00 60 1020.7
20260508181923 53 46 0.0 2.0 0.00 0.00 0.00 60 1020.7
20260508181423 53 46 0.0 1.0 0.00 0.00 0.00 60 1020.7
20260508180923 53 46 1.0 2.0 0.00 0.00 0.00 60 1020.7
20260508180423 52 46 1.0 3.0 0.00 0.00 0.00 60 1020.8
20260508175923 52 46 1.0 3.0 0.00 0.00 0.00 61 1020.7
20260508175423 53 46 0.0 3.0 0.00 0.00 0.00 60 1020.7
20260508174923 53 45 1.0 2.0 0.00 0.00 0.00 60 1020.7
20260508174423 52 46 1.0 2.0 0.00 0.00 0.00 60 1020.7
20260508173924 52 48 2.0 2.0 0.00 0.00 0.00 61 1020.7
20260508173424 52 48 2.0 3.0 0.00 0.00 0.00 61 1020.7
20260508172924 52 48 1.0 3.0 0.00 0.00 0.00 61 1020.7
20260508172423 52 49 0.0 3.0 0.00 0.00 0.00 61 1020.6
20260508171924 52 49 0.0 3.0 0.00 0.00 0.00 61 1020.7
20260508171424 52 49 1.0 2.0 0.00 0.00 0.00 62 1020.6
20260508170924 52 50 1.0 3.0 0.00 0.00 0.00 62 1020.6
20260508170424 52 50 1.0 3.0 0.00 0.00 0.00 62 1020.6
20260508165924 52 50 0.0 2.0 0.00 0.00 0.00 62 1020.6
20260508165424 52 50 0.0 1.0 0.00 0.00 0.00 62 1020.6
20260508164924 52 50 0.0 1.0 0.00 0.00 0.00 62 1020.6
20260508164424 52 50 0.0 1.0 0.00 0.00 0.00 62 1020.5
20260508163924 52 50 1.0 3.0 0.00 0.00 0.00 62 1020.4
20260508163424 52 50 1.0 2.0 0.00 0.00 0.00 61 1020.5
20260508162924 52 50 1.0 2.0 0.00 0.00 0.00 61 1020.5
20260508162424 52 50 1.0 3.0 0.00 0.00 0.00 61 1020.5
20260508161924 52 49 1.0 3.0 0.00 0.00 0.00 61 1020.5
20260508161424 52 49 0.0 3.0 0.00 0.00 0.00 61 1020.6
20260508160924 52 49 0.0 3.0 0.00 0.00 0.00 60 1020.6
20260508160424 52 49 0.0 3.0 0.00 0.00 0.00 61 1020.6
20260508155924 52 49 0.0 1.0 0.00 0.00 0.00 60 1020.6
20260508155424 52 48 0.0 1.0 0.00 0.00 0.00 60 1020.6
20260508154924 53 47 1.0 2.0 0.00 0.00 0.00 59 1020.6
20260508154424 53 46 1.0 3.0 0.00 0.00 0.00 59 1020.6
20260508153924 54 32 1.0 3.0 0.00 0.00 0.00 58 1020.5
20260508153424 54 175 0.0 1.0 0.00 0.00 0.00 56 1020.6
20260508152924 54 169 0.0 1.0 0.00 0.00 0.00 56 1020.6
20260508152424 55 171 1.0 4.0 0.00 0.00 0.00 56 1020.6
20260508151924 55 154 1.0 3.0 0.00 0.00 0.00 55 1020.6
20260508151424 55 153 1.0 2.0 0.00 0.00 0.00 55 1020.6
20260508150924 55 148 2.0 4.0 0.00 0.00 0.00 55 1020.5
20260508150424 55 151 2.0 3.0 0.00 0.00 0.00 55 1020.4
20260508145924 55 155 2.0 5.0 0.00 0.00 0.00 55 1020.4
20260508145424 55 152 2.0 5.0 0.00 0.00 0.00 55 1020.3
20260508144924 55 150 2.0 3.0 0.00 0.00 0.00 55 1020.4
20260508144424 55 142 2.0 5.0 0.00 0.00 0.00 55 1020.4
20260508143924 56 150 3.0 6.0 0.00 0.00 0.00 55 1020.5
20260508143424 56 155 3.0 5.0 0.00 0.00 0.00 54 1020.5
20260508142924 56 159 3.0 5.0 0.00 0.00 0.00 54 1020.5
20260508142424 56 143 3.0 4.0 0.00 0.00 0.00 54 1020.3
20260508141924 56 148 3.0 5.0 0.00 0.00 0.00 54 1020.4
20260508141424 56 148 3.0 5.0 0.00 0.00 0.00 53 1020.4
20260508140924 56 141 3.0 4.0 0.00 0.00 0.00 53 1020.4
20260508140424 57 138 3.0 5.0 0.00 0.00 0.00 53 1020.4
20260508135924 57 139 4.0 7.0 0.00 0.00 0.00 52 1020.3
20260508135424 57 150 4.0 7.0 0.00 0.00 0.00 52 1020.4
20260508134924 57 140 4.0 7.0 0.00 0.00 0.00 52 1020.4
20260508134424 57 135 3.0 7.0 0.00 0.00 0.00 52 1020.4
20260508133924 57 146 3.0 5.0 0.00 0.00 0.00 51 1020.2
20260508133424 57 144 3.0 6.0 0.00 0.00 0.00 51 1020.2
20260508132924 57 148 3.0 6.0 0.00 0.00 0.00 51 1020.2
20260508132424 57 144 4.0 7.0 0.00 0.00 0.00 50 1020.1
20260508131924 57 144 4.0 8.0 0.00 0.00 0.00 50 1020.2
20260508131424 58 141 4.0 6.0 0.00 0.00 0.00 50 1020.1
20260508130924 58 145 3.0 5.0 0.00 0.00 0.00 49 1020.2
20260508130424 58 140 4.0 7.0 0.00 0.00 0.00 49 1020.1
20260508125924 58 157 3.0 8.0 0.00 0.00 0.00 49 1020.1
20260508125424 58 143 3.0 5.0 0.00 0.00 0.00 48 1020.1
20260508124924 58 140 4.0 7.0 0.00 0.00 0.00 48 1020.1
20260508124424 58 138 4.0 7.0 0.00 0.00 0.00 47 1020.0
20260508123924 59 140 3.0 10.0 0.00 0.00 0.00 47 1019.9
20260508123424 59 140 3.0 7.0 0.00 0.00 0.00 46 1020.0
20260508122924 59 153 3.0 5.0 0.00 0.00 0.00 46 1020.0
20260508122424 59 143 3.0 7.0 0.00 0.00 0.00 46 1020.0
20260508121924 59 136 3.0 5.0 0.00 0.00 0.00 45 1020.1
20260508121424 59 121 3.0 5.0 0.00 0.00 0.00 45 1020.1
20260508120924 59 143 2.0 8.0 0.00 0.00 0.00 45 1020.2
20260508120424 59 134 3.0 5.0 0.00 0.00 0.00 45 1020.2
20260508115924 59 144 2.0 7.0 0.00 0.00 0.00 45 1020.4
20260508115424 59 138 2.0 5.0 0.00 0.00 0.00 45 1020.4
20260508114924 59 123 2.0 4.0 0.00 0.00 0.00 45 1020.3
20260508114424 59 116 2.0 4.0 0.00 0.00 0.00 45 1020.2
20260508113924 60 117 3.0 6.0 0.00 0.00 0.00 44 1020.2
20260508113424 60 109 2.0 6.0 0.00 0.00 0.00 43 1019.9
20260508112924 60 76 2.0 9.0 0.00 0.00 0.00 42 1020.0
20260508112424 60 101 3.0 7.0 0.00 0.00 0.00 42 1020.1
20260508111924 60 130 3.0 5.0 0.00 0.00 0.00 42 1020.1
20260508111424 60 136 3.0 4.0 0.00 0.00 0.00 43 1020.0
20260508110924 60 136 2.0 4.0 0.00 0.00 0.00 43 1019.9
20260508110424 60 120 2.0 4.0 0.00 0.00 0.00 42 1019.7
20260508105924 60 106 2.0 5.0 0.00 0.00 0.00 42 1019.7
20260508105424 61 98 3.0 7.0 0.00 0.00 0.00 41 1019.7
20260508104924 61 125 3.0 4.0 0.00 0.00 0.00 41 1019.6
20260508104424 61 134 3.0 5.0 0.00 0.00 0.00 41 1019.7
20260508103924 61 139 2.0 4.0 0.00 0.00 0.00 41 1019.6
20260508103424 61 123 3.0 7.0 0.00 0.00 0.00 41 1019.5
20260508102924 61 131 3.0 5.0 0.00 0.00 0.00 41 1019.5
20260508102424 61 126 3.0 5.0 0.00 0.00 0.00 40 1019.5
20260508101924 62 132 4.0 7.0 0.00 0.00 0.00 40 1019.5
20260508101424 62 133 4.0 10.0 0.00 0.00 0.00 40 1019.6
20260508100924 62 132 3.0 6.0 0.00 0.00 0.00 40 1019.6
20260508100424 62 115 3.0 8.0 0.00 0.00 0.00 39 1019.5
20260508095924 62 123 4.0 7.0 0.00 0.00 0.00 39 1019.5
20260508095424 63 94 4.0 9.0 0.00 0.00 0.00 39 1019.5
20260508094924 63 119 3.0 8.0 0.00 0.00 0.00 38 1019.5
20260508094424 63 113 4.0 8.0 0.00 0.00 0.00 38 1019.4
20260508093924 63 126 5.0 9.0 0.00 0.00 0.00 38 1019.2
20260508093424 63 126 4.0 13.0 0.00 0.00 0.00 38 1019.2
20260508092924 63 124 4.0 8.0 0.00 0.00 0.00 38 1019.3
20260508092424 64 123 4.0 8.0 0.00 0.00 0.00 38 1019.3
20260508091924 64 117 3.0 8.0 0.00 0.00 0.00 38 1019.2
20260508091424 64 121 4.0 7.0 0.00 0.00 0.00 37 1019.1
20260508090924 64 124 4.0 9.0 0.00 0.00 0.00 37 1019.1
20260508090424 64 92 4.0 8.0 0.00 0.00 0.00 37 1018.9
20260508085924 64 76 4.0 9.0 0.00 0.00 0.00 37 1019.0
20260508085424 64 123 4.0 8.0 0.00 0.00 0.00 37 1018.8
20260508084924 65 115 5.0 8.0 0.00 0.00 0.00 37 1018.7
20260508084424 65 116 5.0 9.0 0.00 0.00 0.00 36 1018.7
20260508083924 65 126 4.0 8.0 0.00 0.00 0.00 36 1018.5
20260508083424 65 108 5.0 8.0 0.00 0.00 0.00 36 1018.5
20260508082924 65 113 4.0 9.0 0.00 0.00 0.00 36 1018.5
20260508082424 65 116 4.0 9.0 0.00 0.00 0.00 36 1018.5
20260508081924 65 113 4.0 8.0 0.00 0.00 0.00 36 1018.3
20260508081424 66 118 4.0 9.0 0.00 0.00 0.00 36 1018.2
20260508080924 66 92 3.0 7.0 0.00 0.00 0.00 36 1018.2
20260508080424 66 88 3.0 6.0 0.00 0.00 0.00 36 1018.1
20260508075924 66 84 3.0 7.0 0.00 0.00 0.00 35 1017.9
20260508075424 67 105 3.0 7.0 0.00 0.00 0.00 35 1017.9
20260508074924 67 107 4.0 6.0 0.00 0.00 0.00 35 1017.8
20260508074424 67 92 4.0 9.0 0.00 0.00 0.00 34 1017.8
20260508073924 67 97 4.0 8.0 0.00 0.00 0.00 34 1017.7
20260508073424 67 90 4.0 8.0 0.00 0.00 0.00 34 1017.6
20260508072924 68 95 4.0 8.0 0.00 0.00 0.00 34 1017.5
20260508072424 68 82 3.0 8.0 0.00 0.00 0.00 34 1017.6
20260508071924 68 73 3.0 7.0 0.00 0.00 0.00 34 1017.5
20260508071424 68 75 3.0 9.0 0.00 0.00 0.00 33 1017.4
20260508070924 69 49 3.0 6.0 0.00 0.00 0.00 33 1017.4
20260508070424 70 51 3.0 7.0 0.00 0.00 0.00 33 1017.3
20260508065924 70 47 2.0 8.0 0.00 0.00 0.00 32 1017.2
20260508065424 71 55 2.0 6.0 0.00 0.00 0.00 31 1017.1
20260508064924 71 55 3.0 5.0 0.00 0.00 0.00 31 1017.1
20260508064424 71 51 2.0 7.0 0.00 0.00 0.00 31 1017.1
20260508063924 72 51 1.0 8.0 0.00 0.00 0.00 30 1017.0
20260508063424 72 41 1.0 5.0 0.00 0.00 0.00 30 1017.0
20260508062924 72 53 1.0 4.0 0.00 0.00 0.00 30 1017.0
20260508062424 72 50 1.0 8.0 0.00 0.00 0.00 29 1017.0
20260508061924 72 57 1.0 5.0 0.00 0.00 0.00 28 1016.9
20260508061424 73 61 0.0 7.0 0.00 0.00 0.00 29 1016.8
20260508060925 73 52 1.0 2.0 0.00 0.00 0.00 29 1016.8
20260508060425 72 51 1.0 3.0 0.00 0.00 0.00 29 1016.8
20260508055925 72 60 1.0 5.0 0.00 0.00 0.00 28 1016.8
20260508055425 73 66 2.0 8.0 0.00 0.00 0.00 28 1016.9
20260508054924 73 81 1.0 5.0 0.00 0.00 0.00 27 1016.9
20260508054425 73 50 1.0 5.0 0.00 0.00 0.00 27 1016.8
20260508053925 73 55 1.0 4.0 0.00 0.00 0.00 28 1016.9
20260508053425 73 58 1.0 4.0 0.00 0.00 0.00 27 1016.9
20260508052925 73 55 1.0 7.0 0.00 0.00 0.00 26 1017.0
20260508052425 73 61 1.0 6.0 0.00 0.00 0.00 26 1017.0
20260508051925 73 66 1.0 10.0 0.00 0.00 0.00 26 1017.0
20260508051425 73 75 1.0 6.0 0.00 0.00 0.00 26 1017.0
20260508050925 73 42 1.0 4.0 0.00 0.00 0.00 27 1017.1
20260508050425 73 58 1.0 5.0 0.00 0.00 0.00 26 1017.2
20260508045925 73 57 1.0 4.0 0.00 0.00 0.00 26 1017.2
20260508045425 74 70 1.0 4.0 0.00 0.00 0.00 24 1017.2
20260508044925 73 61 1.0 3.0 0.00 0.00 0.00 25 1017.2
20260508044425 72 42 1.0 3.0 0.00 0.00 0.00 25 1017.2
20260508043925 72 49 1.0 8.0 0.00 0.00 0.00 25 1017.3
20260508043425 72 57 1.0 10.0 0.00 0.00 0.00 24 1017.4
20260508042925 72 45 2.0 5.0 0.00 0.00 0.00 24 1017.4
20260508042425 73 54 2.0 9.0 0.00 0.00 0.00 23 1017.4
20260508041925 73 43 1.0 3.0 0.00 0.00 0.00 24 1017.6
20260508041425 72 38 1.0 5.0 0.00 0.00 0.00 25 1017.6
20260508040925 73 49 1.0 5.0 0.00 0.00 0.00 24 1017.5
20260508040425 73 50 2.0 8.0 0.00 0.00 0.00 25 1017.6
20260508035925 73 50 2.0 6.0 0.00 0.00 0.00 24 1017.6
20260508035425 72 65 1.0 5.0 0.00 0.00 0.00 26 1017.6
20260508034925 72 53 2.0 5.0 0.00 0.00 0.00 24 1017.7
20260508034425 71 44 2.0 11.0 0.00 0.00 0.00 25 1017.7
20260508033925 71 54 1.0 5.0 0.00 0.00 0.00 24 1017.7
20260508033425 71 54 1.0 5.0 0.00 0.00 0.00 25 1017.8
20260508032925 71 69 1.0 3.0 0.00 0.00 0.00 27 1018.0
20260508032425 70 52 1.0 3.0 0.00 0.00 0.00 25 1018.0
20260508031925 70 59 2.0 5.0 0.00 0.00 0.00 24 1018.1
20260508031425 70 61 2.0 5.0 0.00 0.00 0.00 27 1018.2
20260508030925 69 71 2.0 6.0 0.00 0.00 0.00 25 1018.3
20260508030425 70 54 1.0 4.0 0.00 0.00 0.00 25 1018.3
20260508025925 69 56 1.0 9.0 0.00 0.00 0.00 25 1018.2
20260508025425 69 71 2.0 4.0 0.00 0.00 0.00 25 1018.3
20260508024925 69 61 2.0 5.0 0.00 0.00 0.00 25 1018.5
20260508024425 69 64 2.0 6.0 0.00 0.00 0.00 26 1018.6
20260508023925 69 54 2.0 6.0 0.00 0.00 0.00 26 1018.6
20260508023425 68 74 1.0 7.0 0.00 0.00 0.00 26 1018.7
20260508022925 68 45 1.0 3.0 0.00 0.00 0.00 27 1018.7
20260508022425 68 46 1.0 4.0 0.00 0.00 0.00 26 1018.8
20260508021925 68 49 1.0 4.0 0.00 0.00 0.00 26 1019.0
20260508021425 68 52 1.0 4.0 0.00 0.00 0.00 25 1019.0
20260508020925 68 49 1.0 4.0 0.00 0.00 0.00 27 1019.1
20260508020425 67 80 1.0 3.0 0.00 0.00 0.00 25 1019.4
20260508015925 67 64 1.0 9.0 0.00 0.00 0.00 27 1019.5
20260508015425 66 65 1.0 4.0 0.00 0.00 0.00 28 1019.3
20260508014925 66 47 1.0 3.0 0.00 0.00 0.00 27 1019.5
20260508014425 66 57 1.0 6.0 0.00 0.00 0.00 26 1019.7
20260508013925 66 71 1.0 3.0 0.00 0.00 0.00 28 1019.8
20260508013425 66 66 2.0 4.0 0.00 0.00 0.00 28 1019.9
20260508012925 66 75 2.0 4.0 0.00 0.00 0.00 29 1020.0
20260508012425 65 63 2.0 4.0 0.00 0.00 0.00 27 1020.1
20260508011925 65 71 2.0 8.0 0.00 0.00 0.00 28 1020.2
20260508011425 65 58 1.0 4.0 0.00 0.00 0.00 28 1020.2
20260508010925 65 59 1.0 3.0 0.00 0.00 0.00 29 1020.2
20260508010425 65 64 1.0 4.0 0.00 0.00 0.00 28 1020.2
20260508005925 64 64 1.0 7.0 0.00 0.00 0.00 31 1020.4
20260508005425 64 74 1.0 5.0 0.00 0.00 0.00 30 1020.5
20260508004925 64 55 1.0 3.0 0.00 0.00 0.00 29 1020.6
20260508004425 64 66 1.0 3.0 0.00 0.00 0.00 30 1020.5
20260508003925 63 90 1.0 24.0 0.00 0.00 0.00 31 1020.6
20260508003425 62 74 1.0 3.0 0.00 0.00 0.00 34 1020.6
20260508002925 62 73 1.0 7.0 0.00 0.00 0.00 34 1020.6
20260508002425 62 69 1.0 4.0 0.00 0.00 0.00 34 1020.5
20260508001925 61 77 1.0 4.0 0.00 0.00 0.00 33 1020.6
20260508001425 61 102 2.0 6.0 0.00 0.00 0.00 35 1020.8
20260508000925 61 73 2.0 7.0 0.00 0.00 0.00 34 1020.8
20260508000427 60 103 2.0 8.0 0.00 0.00 0.00 35 1020.8
20260507235925 60 105 1.0 3.0 0.00 0.00 0.00 36 1020.9
20260507235425 60 80 1.0 6.0 0.00 0.00 0.00 38 1021.0
20260507234925 59 103 1.0 4.0 0.00 0.00 0.00 38 1021.0
20260507234425 59 106 1.0 8.0 0.00 0.00 0.00 37 1021.3
20260507233925 59 130 1.0 4.0 0.00 0.00 0.00 38 1021.4
20260507233425 58 135 3.0 4.0 0.00 0.00 0.00 39 1021.4
20260507232925 58 107 3.0 9.0 0.00 0.00 0.00 38 1021.4
20260507232425 57 120 2.0 7.0 0.00 0.00 0.00 40 1021.4
20260507231925 57 115 2.0 7.0 0.00 0.00 0.00 39 1021.3
20260507231425 57 96 1.0 6.0 0.00 0.00 0.00 41 1021.3
20260507230925 56 97 1.0 3.0 0.00 0.00 0.00 41 1021.4
20260507230425 56 121 1.0 5.0 0.00 0.00 0.00 41 1021.3
20260507225925 56 115 1.0 5.0 0.00 0.00 0.00 42 1021.3
20260507225425 55 112 0.0 3.0 0.00 0.00 0.00 42 1021.4
20260507224925 55 94 0.0 1.0 0.00 0.00 0.00 45 1021.3
20260507224425 54 111 1.0 3.0 0.00 0.00 0.00 45 1021.2
20260507223925 54 107 1.0 4.0 0.00 0.00 0.00 45 1021.4
20260507223425 53 120 1.0 7.0 0.00 0.00 0.00 45 1021.4
20260507222925 53 103 1.0 4.0 0.00 0.00 0.00 46 1021.4
20260507222425 52 131 0.0 4.0 0.00 0.00 0.00 47 1021.5
20260507221925 52 116 0.0 3.0 0.00 0.00 0.00 48 1021.3
20260507221425 52 115 1.0 2.0 0.00 0.00 0.00 49 1021.2
20260507220925 51 115 1.0 5.0 0.00 0.00 0.00 49 1021.3